User: anonymous
Location: Prairie State College
(41.5244°N, 87.6382°W)
Time: 13:25:20
(UTC-05:00)
Language:

Cosmos 1943 - Orbit

View from above orbital plane
View from above orbital plane
View from above satellite
View from above satellite

Ground track
Ground track

The orbit data is extracted from the following two-line orbital elements,

1 19119U 88039A   14208.81937523 -.00000015  00000-0  16943-4 0  2001
2 19119 071.0050 157.8391 0012966 231.6417 152.7354 14.14940760352809
Epoch (UTC): 27 July 2014 19:39:54
Eccentricity: 0.0012966
inclination: 71.0050°
perigee height: 833 km
apogee height: 852 km
right ascension of ascending node: 157.8391°
argument of perigee: 231.6417°
revolutions per day: 14.14940760
mean anomaly at epoch: 152.7354°
orbit number at epoch: 35280

The dashed part of the orbit path shows where the satellite is in the earth's shadow,  

DLR